カタログに戻る

STARLINK-34262

運用中通信VLEO
NORAD 64688·PAYLOAD·🇺🇸 United States

打ち上げ Jun 28, 2025 から Cape Canaveral Space Force Station

Loading…

次のパス (今後24時間)

TLE

最新Source: CelesTrak SupGP

元期: Sep 15, 2026, 03:05 UTC

1 64688C 25139AA  26258.12895833  .00046800  00000+0  13824-2 0  2589
2 64688  53.1595 322.9161 0001263  85.8447  42.7816 15.34375471    13

AllMySatでSTARLINK-34262をリアルタイム追跡

Download on the App Store